Location: Newark
(25.4297°S, 49.2719°W)
Time: 03:52:11
(UTC+00:00)

Hubble Space Telescope - Pass Details

Date: 02 July 2021
Orbit: 535 x 539 km, 28.5° (Epoch: 28 July)

Event Time Altitude Azimuth Distance (km) Brightness Sun altitude
Rises 22:40:34 0° 276° (W) 2,676 5.6 -26.7°
Reaches altitude 10° 22:42:50 10° 273° (W) 1,787 4.4 -27.2°
Enters shadow 22:45:30 38° 260° (W) 834 2.1 -27.8°
